Home   Weather   Damascus   Past weeks

Flag for Syria Past Weather in Damascus, Syria — Yesterday and Last 2 Weeks

Now
68 °F

Sunny.


Feels Like: 68 °F
Forecast: 34 / 67 °F
Wind: 5 mph from Northwest

Location: Damascus Int. Airport

Current Time: Feb 26, 2017 at 2:35:25 pm

Latest Report: Feb 26, 2017 at 2:00 pm


Visibility: 10 mi

Pressure: 30.15 "Hg (27.82 "Hg at 689m altitude)

Humidity: 11%

Dew Point: 12 °F

Location of DamascusLocation

Past Weather in Damascus — Graph

°F

Damascus Temperature Yesterday

Maximum temperature yesterday: 68 °F (at 2:00 pm)
Minimum temperature yesterday: 34 °F (at 6:00 am)
Average temperature yesterday: 52 °F

High & Low Weather Summary for the Past Weeks

 TemperatureHumidityPressure
High68 °F (Feb 24, 3:00 pm)93% (Feb 13, 7:00 am)30.45 "Hg (Feb 13, 7:00 am)
Low25 °F (Feb 18, 3:00 am)11% (Feb 20, 3:00 pm)29.89 "Hg (Feb 13, 3:00 pm)
Average44 °F55%30.12 "Hg
* Reported Feb 11 1:00 pm — Feb 26 1:00 pm, Damascus, Weather by CustomWeather, © 2017

Note: Actual official high and low records may vary slightly from our data, if they occured in-between our weather recording intervals... More about our weather records

Advertising

Damascus Weather History for the Previous 24 Hours

Scroll right to see more
 ConditionsComfort  
Time TempWeatherWind HumidityBarometerVisibility
1:00 pm
Sun, Feb 26
68 °FSunny.5 mph11%30.15 "Hg10 mi
12:00 pm64 °FSunny.5 mph13%30.21 "Hg10 mi
11:00 am61 °FSunny.5 mph19%30.21 "Hg10 mi
10:00 am55 °FSunny.5 mph26%30.24 "Hg10 mi
9:00 am46 °FSunny.5 mph40%30.24 "Hg10 mi
8:00 am39 °FSunny.No wind48%30.24 "Hg10 mi
7:00 am32 °FSunny.No wind64%30.24 "Hg10 mi
6:00 am30 °FClear.12 mph64%30.21 "Hg10 mi
5:00 am34 °FClear.5 mph56%30.21 "Hg10 mi
4:00 am34 °FClear.2 mph56%30.21 "Hg10 mi
3:00 am34 °FClear.5 mph60%30.21 "Hg10 mi
12:00 am37 °FClear.5 mph48%30.24 "Hg10 mi
11:00 pm
Sat, Feb 25
43 °FClear.No wind36%30.24 "Hg10 mi
9:00 pm48 °FClear.5 mph27%30.24 "Hg10 mi
8:00 pm48 °FCool.5 mph25%30.24 "HgN/A
7:00 pm57 °FClear.7 mph21%30.21 "Hg10 mi
6:00 pm61 °FClear.5 mph19%30.21 "Hg10 mi
5:00 pm66 °FSunny.5 mph15%30.21 "Hg10 mi
4:00 pm66 °FSunny.5 mph14%30.21 "Hg10 mi
3:00 pm68 °FSunny.7 mph13%30.21 "Hg10 mi
2:00 pm68 °FSunny.7 mph13%30.24 "Hg10 mi
Weather by CustomWeather, © 2017

See weather overviewHow to use our weather pages

LIVE ANNULAR SOLAR ECLIPSE – Watch the eclipse as it happens